Regional Weather Roundup
Issued by NWS Burlington, VT

Home | Current Version | Previous Version | Text Only | Print | Product List | Glossary On
Versions: 1 2 3 4 5 6 7 8 9 10 11 12 13 14 15 16 17 18 19 20 21 22 23 24 25 26 27 28 29 30 31 32 33 34 35 36 37 38 39 40 41 42 43 44 45 46 47 48 49 50
000
ASUS41 KBTV 022030
RWRBTV
VERMONT REGIONAL WEATHER ROUNDUP
NATIONAL WEATHER SERVICE BURLINGTON VT
300 PM EST MON MAR 02 2015

NOTE: "FAIR" INDICATES FEW OR NO CLOUDS BELOW 12,000 FEET WITH NO
SIGNIFICANT WEATHER AND/OR OBSTRUCTIONS TO VISIBILITY.

* THESE REPORTS ARE NOT UNDER NWS QUALITY CONTROL AND/OR DO NOT
  REPORT WEATHER SUCH AS PRECIPITATION AND FOG.

VTZ001>019-022100-
_____VERMONT_____


CITY           SKY/WX    TMP DP  RH WIND       PRES   REMARKS
BURLINGTON     FLURRIES  27  15  61 NW20G33   30.03R WCI  13
MONTPELIER     LGT SNOW  23  13  65 W18G32    29.97R WCI   9
MORRISVILLE    LGT SNOW  24  13  62 NW23G35   30.00R VSB 1   WCI   9
ST. JOHNSBURY*   N/A     25  18  74 MISG      29.93R
LYNDONVILLE*   MIX PCPN  23  12  63 W17G28    29.92R WCI   9
MIDDLEBURY*    CLOUDY    28  13  53 NW9G17    30.03R
RUTLAND*       CLOUDY    27  12  54 NW10G20   30.01R WCI  17
SPRINGFIELD    CLOUDY    29  14  53 W16G23    29.99R WCI  17
HIGHGATE*      FAIR      27   8  44 W8G18     30.03R
NEWPORT*       LGT SNOW  21  14  75 W16G23    29.95R WCI   7
BENNINGTON     CLOUDY    27  16  63 W13G31    30.05R HAZE    WCI  16
SUTTON*          N/A     19 N/A N/A MISG        N/A
GALLUP MILLS*    N/A     21 N/A N/A MISG        N/A
MT. MANSFIELD*   N/A     10 N/A N/A NW6G24      N/A

_____LAKE CHAMPLAIN_____


CITY           SKY/WX    TMP DP  RH WIND       PRES   REMARKS
BURTON ISLAND*   N/A     28  18  64 W25G31      N/A  WCI  14
COLCHESTER RF*   N/A     28  16  59 NW26        N/A  WCI  13
DIAMOND ISL*     N/A     30  14  51 W17G37      N/A  WCI  18

$$

NYZ007-026>031-035-052-083-022100-
_____NORTHERN NEW YORK_____


CITY           SKY/WX    TMP DP  RH WIND       PRES   REMARKS
PLATTSBURGH    MIX PCPN  28  14  55 NW16G33   30.04R WCI  16
SARANAC LAKE   LGT SNOW  20  13  74 W17G26    29.98R WCI   5
MASSENA        MOCLDY    27  13  55 W22G33    30.12R WCI  13
OGDENSBURG*    LGT SNOW  28  18  64 W13G29    30.14R WCI  18
POTSDAM*       CLOUDY    27  19  74 NW13      30.10R WCI  16
STARK FALLS*     N/A     23 N/A N/A W9          N/A
WATERTOWN      MOCLDY    28  16  60 W22G35    30.18R WCI  14
FT DRUM        MOCLDY    27  14  59 W21G33    30.15R WCI  13
ALBANY         MOCLDY    29  14  53 W36G44    30.12R WCI  12
GLENS FALLS    MOCLDY    31  12  45 W10G33    30.06R

$$
NHZ002-005-011-022100-
_____NEW HAMPSHIRE_____


CITY           SKY/WX    TMP DP  RH WIND       PRES   REMARKS
LEBANON        CLOUDY    28  20  71 NW8       29.97R
KEENE          PTCLDY    30  12  47 W16G23    30.01R WCI  19
MT WASHINGTON  SNOW      -2  -2 100 NW66G75     N/A  VSB 0   WCI -37
PLYMOUTH       FLURRIES  28  19  66 W14G21    29.94R WCI  17
WHITEFIELD     LGT SNOW  23  14  68 W18G35    29.90R WCI   9

$$

_____REGIONAL QUEBEC LOCATIONS_____


CITY           SKY/WX    TMP DP  RH WIND       PRES   REMARKS
MONTREAL       SNOWSHWR  25  16  68 W23G31    30.04R VSB 1   WCI  10
QUEBEC CITY    MOCLDY    25  12  58 W17G26    29.83  WCI  11
SHERBROOKE     FLURRIES  21  14  73 W24G32    29.90R WCI   4

_____REGIONAL ONTARIO LOCATIONS_____


CITY           SKY/WX    TMP DP  RH WIND       PRES   REMARKS
OTTAWA         PTCLDY    25  16  68 W22G33    30.11R WCI  10

______KEY______
VSB  - VISIBILITY IN MILES
WCI  - WIND CHILL INDEX
HX   - HEAT INDEX
$$



USA.gov is the U.S. government's official web portal to all federal, state and local government web resources and services.